Overview Statistics Trail Chart Weather Telemetry Raw packets
 

This is the latest recevied weather packets stored in our database for station/object CT1EDG-13. If no packets are shown the sender has not sent any weather packets the latest 10 day(s).

<< 2 3 4 5 6 7 8 >>
Time Temp. Humidity Pressure Rain* Wind** Luminosity Snow
1788594238 26.11° C 90% 1008.3 hPa 0 mm - - -
1788594237 26.11° C 90% 1008.3 hPa 0 mm - - -
1788593639 26.11° C 88% 1008.1 hPa 0 mm - - -
1788593637 26.11° C 88% 1008.1 hPa 0 mm - - -
1788593037 27.22° C 82% 1007.9 hPa 0 mm - - -
1788593035 27.22° C 82% 1007.9 hPa 0 mm - - -
1788592436 26.11° C 87% 1007.9 hPa 0 mm - - -
1788592435 26.11° C 87% 1007.9 hPa 0 mm - - -
1788591838 25° C 93% 1007.6 hPa 0 mm - - -
1788591835 25° C 93% 1007.6 hPa 0 mm - - -
1788591236 24.44° C 93% 1007.6 hPa 0 mm - - -
1788591235 24.44° C 93% 1007.6 hPa 0 mm - - -
1788590636 24.44° C 92% 1007.6 hPa 0 mm - - -
1788590635 24.44° C 92% 1007.6 hPa 0 mm - - -
1788590036 23.89° C 94% 1007.5 hPa 0 mm - - -
1788590035 23.89° C 94% 1007.5 hPa 0 mm - - -
1788589436 23.89° C 94% 1007.4 hPa 0 mm - - -
1788589434 23.89° C 94% 1007.4 hPa 0 mm - - -
1788588835 23.33° C 93% 1007.3 hPa 0 mm - - -
1788588834 23.33° C 93% 1007.3 hPa 0 mm - - -
1788588234 23.33° C 90% 1007.2 hPa 0 mm - - -
1788588232 23.33° C 90% 1007.2 hPa 0 mm - - -
1788587633 23.89° C 84% 1007.1 hPa 0 mm - - -
1788587632 23.89° C 84% 1007.1 hPa 0 mm - - -
1788587033 25° C 79% 1007 hPa 0 mm - - -

* Rain latest hour (hover to see other rain measurements)
** Current wind speed in m/s (hover to see current wind gust speed)